Other Public Products
Issued by NWS Grand Forks, ND

Home | Current Version | Previous Version | Text Only | Print | Product List | Glossary Off
Versions: 1 2 3 4 5 6 7 8 9 10 11 12 13 14 15 16 17 18 19 20 21 22 23 24 25 26 27 28 29 30 31 32 33 34 35 36 37 38 39 40 41 42 43 44 45 46 47 48 49 50

000
FPUS83 KFGF 220510
OPUFGF
PRAIRIE TO PINES WEATHER ROUNDUP
NATIONAL WEATHER SERVICE EASTERN NORTH DAKOTA/GRAND FORKS ND
1200 AM CDT SUN APR 22 2018

 **SATELLITE DATA USED TO AUGMENT SKY COVER AT AUTOMATED STATIONS**
 *****  WEATHER ACROSS EASTERN NORTH DAKOTA  *****

CITY           SKY/WX    TMP DP  RH WIND       PRES   REMARKS
GRAND FORKS    FAIR      46  43  89 S12       30.22F
GRND FORKS AFB FAIR      46  42  87 S12       30.21F
GRND FORKS NWS   N/A     47  42  81 S9        30.20F
BUXTON           N/A     46  45  96 S9          N/A
DEVILS LAKE    FAIR      46  35  65 S14       30.18F
FARGO          FAIR      47  40  76 S13       30.27S
WAHPETON ARPT  FAIR      41  36  81 S9        30.29F
$$

 *****  WEATHER ACROSS CENTRAL AND WESTERN NORTH DAKOTA  *****

CITY           SKY/WX    TMP DP  RH WIND       PRES   REMARKS
JAMESTOWN      FAIR      41  35  79 S9        30.22F
BISMARCK       FAIR      46  35  65 S15       30.19R
MINOT          FAIR      48  37  65 S23       30.06F
MINOT AFB      FAIR      47  37  68 S22       30.04F
GARRISON         N/A     43  36  76 S14       30.11F
WILLISTON      FAIR      52  39  61 S10G20    29.98R
DICKINSON      FAIR      42  37  82 S18G28    30.06F
HETTINGER      FAIR      40  35  83 SE12      30.13F
$$

 *****  OTHER OBSERVATIONS NORTHEAST NORTH DAKOTA  *****

CITY           SKY/WX    TMP DP  RH WIND       PRES   REMARKS
WALHALLA       FAIR      50  46  87 S14       30.17F
LANGDON        NOT AVBL
CAVALIER         N/A     48  43  81 S12       30.18F
GRAFTON        NOT AVBL
CANDO          FAIR      43  37  81 S12       30.18S
FORT TOTTEN      N/A     44  35  70 S9        29.95S
ROLLA          FAIR      45  39  81 S17       30.13S
RUGBY          NOT AVBL
 ***** THE ABOVE OBSERVATIONS ARE NON NWS ARE NOT QUALITY
        CONTROLLED AND MAY MIS-REPORT RAIN FOR SNOW...
$$

 *****  OTHER OBSERVATIONS SOUTHEAST NORTH DAKOTA *****

CITY           SKY/WX    TMP DP  RH WIND       PRES   REMARKS
COOPERSTOWN    FAIR      43  37  81 S13       30.23F
VALLEY CITY    NOT AVBL
OAKES            N/A     39  36  87 S12       30.26F
GWINNER          N/A     39  36  87 SW10      30.27S
SHEYENNE NWR     N/A     43  41  91 S8        29.95S
BUFFALO          N/A     45  35  67 E7          N/A
WYNDMERE       NOT AVBL
 ***** THE ABOVE OBSERVATIONS ARE NON NWS ARE NOT QUALITY
       CONTROLLED AND MAY MIS-REPORT RAIN FOR SNOW...
$$

  *****  WEATHER ACROSS NORTHERN MINNESOTA  *****

CITY           SKY/WX    TMP DP  RH WIND       PRES   REMARKS
FLAG ISLAND    FAIR      39  28  65 SE6       30.24F
WARROAD        FAIR      43  37  81 S5        30.25F
ROSEAU         FAIR      41  36  81 SE6       30.24F
HALLOCK        FAIR      46  43  87 S14       30.20F
THF RVR FALLS  FAIR      43  37  79 S8        30.26F
HALSTAD        NOT AVBL
FOSSTON        FAIR      39  32  75 S5        30.28F
BAUDETTE       FAIR      39  33  79 CALM      30.26F
WASKISH        FAIR      45  28  53 S5        30.27F
CROOKSTON      FAIR      46  39  76 S14       30.26F
$$
  *****  WEATHER ACROSS CENTRAL AND WEST MINNESOTA  *****

CITY           SKY/WX    TMP DP  RH WIND       PRES   REMARKS
BEMIDJI        FAIR      36  26  67 S5        30.29S
PARK RAPIDS    FAIR      43  32  65 S8        30.29F
WADENA         FAIR      39  30  70 CALM      30.31F
DETROIT LAKES  FAIR      41  34  75 CALM      30.30F
MOORHEAD       FAIR      45  37  76 S13       30.29S
FERGUS FALLS   FAIR      39  34  81 S6        30.28F
ELBOW LAKE     FAIR      40  34  77 E7        30.31F
MORRIS MN      FAIR      37  36  93 S6        30.31S
STAPLES        FAIR      43  30  61 SE5       30.32F
WHEATON        FAIR      43  36  75 S7        30.32S
$$
  *****  WEATHER ELSEWHERE ACROSS MINNESOTA  *****

CITY           SKY/WX    TMP DP  RH WIND       PRES   REMARKS
DULUTH         FAIR      40  19  43 CALM      30.33F
INTRNTL FALLS  FAIR      36  25  64 CALM      30.28F
ELY            FAIR      32  19  59 CALM      30.33S
CLOQUET        FAIR      34  16  47 CALM      30.33F
BRAINERD       FAIR      33  25  72 CALM      30.33S
HIBBING        FAIR      30  22  72 CALM      30.32F
ALEXANDRIA     FAIR      40  32  73 CALM      30.31F
SAINT CLOUD    FAIR      35  30  82 CALM      30.33F
MINNEAPOLIS    FAIR      50  33  52 S5        30.35F
$$

  *****  WEATHER ACROSS SOUTH DAKOTA  *****

CITY           SKY/WX    TMP DP  RH WIND       PRES   REMARKS
SIOUX FALLS    CLOUDY    41  33  73 E5        30.29F
BROOKINGS      FAIR      37  31  78 E6        30.30F
WATERTOWN      FAIR      38  30  73 SE6       30.29S
HURON          FAIR      39  33  79 SE9       30.28S
SISSETON         N/A     40  35  83 S10       30.28F
ABERDEEN       FAIR      35  32  88 S6        30.28F
MITCHELL       CLOUDY    39  35  86 E6        30.29F
PIERRE         FAIR      36  35  96 SE5       30.23S
MOBRIDGE       FAIR      40  34  79 SE9       30.19F
RAPID CITY     FAIR      39  34  82 S15       30.14F
$$

  *****  SOME WEATHER IN NEARBY STATES *****

CITY           SKY/WX    TMP DP  RH WIND       PRES   REMARKS
GLASGOW MT     MOCLDY    56  23  27 NW21G31   30.01R
GREAT FALLS MT FAIR      43  20  39 NE6       30.12R
CHEYENNE WY    CLOUDY    35  35 100 S10       30.17S
SCOTTSBLUFF NE FAIR      35  35 100 E7        30.18S
OMAHA NE       CLOUDY    52  27  38 E9        30.24F
DES MOINES IA  CLOUDY    52  30  43 E13G20    30.28S
DAVENPORT IA   FAIR      48  33  56 E9        30.34F
CHICAGO IL     CLOUDY    45  20  36 E5        30.36F
EAU CLAIRE WI  FAIR      40  30  67 CALM      30.35F
LA CROSSE WI   FAIR      45  33  63 E3        30.36F
$$

  *****  SOME NATIONAL WEATHER *****

CITY           SKY/WX    TMP DP  RH WIND       PRES   REMARKS
LA GUARDIA NY  FAIR      53  21  28 NW13      30.35R
RALEIGH NC     FAIR      54  39  57 S8        30.36R
ATLANTA GA     CLOUDY    63  45  51 SE6       30.25S
NEW ORLEANS LA CLOUDY    71  67  87 SE10      30.03F
OKLAHOMA CITY  LGT RAIN  47  45  93 N18       30.10F
ALBUQUERQUE NM FAIR      56  26  31 CALM      30.15R
SALT LAKE CITY FAIR      55  30  38 S6        30.14S
LOS ANGELES CA FAIR      61  54  77 SW6       29.97S
BOISE ID       FAIR      55  35  47 W8        30.11R
SEATTLE WA     MOCLDY    49  37  63 NE14      30.42R
$$

*** WEATHER ACROSS MANITOBA...SASKATCHEWAN AND ONTARIO ***
                ***ONTARIO***

CITY           SKY/WX    TMP DP  RH WIND       PRES   REMARKS
GERALDTON      CLEAR     37  18  44 S3        30.32S
THUNDER BAY    CLEAR     28  25  86 W2        30.36R
SIOUX LOOKOUT  CLEAR     30  23  74 S2        30.26F
TORONTO        CLEAR     37  25  60 NW3       30.40S
BIG TROUT LK   PTCLDY    41  27  56 SW5       30.18F
PICKLE LAKE    NOT AVBL
DRYDEN         CLEAR     46  25  42 S8        30.26F
KENORA         CLEAR     48  25  40 S8        30.24F
$$
                *** MANITOBA***

CITY           SKY/WX    TMP DP  RH WIND       PRES   REMARKS
BRANDON        MOCLDY    50  37  62 S14       30.04F
DAUPHIN        CLOUDY    55  37  50 SW31G43   29.90F
ISLAND LAKE    MOCLDY    48  28  46 SE8       30.09F
PILOT MOUND      N/A     46  36  66 S20G25      N/A
THE PAS        CLOUDY    45  36  70 SE10G18   29.77F
THOMPSON       MOCLDY    48  28  46 VRB2      29.95F
WINNIPEG       PTCLDY    50  43  76 S21       30.15F
LYNN LAKE      CLOUDY    45  32  61 E9        29.85F
CHURCHILL      CLOUDY    28  27  93 NE20      30.20S WCI  15
GILLAM         MOCLDY    45  28  53 SE5       30.06F
$$
                ***SASKATCHEWAN***

CITY           SKY/WX    TMP DP  RH WIND       PRES   REMARKS
ESTEVAN        MOCLDY    52  37  58 S24G33    29.93R
KINDERSLEY     MOCLDY    43  37  81 W26G39    29.85R
LLOYDMINSTER   LGT RAIN  37  37 100 W21G30    29.71R
PRINCE ALBERT  MOCLDY    43  36  75 S9        29.59F
REGINA         CLOUDY    50  32  50 W16G23    29.87S
YORKTON        LGT RAIN  48  39  71 SW14G26   29.86R


USA.gov is the U.S. government's official web portal to all federal, state and local government web resources and services.